• Join FlightAware (Why Join?)
  • Login
  • US Flag GB Flag 
20:50 EST


 

Airport Tracker/Info


-or-


 

Live Flight TrackerFlight Track Log ✈ UCA596 ✈ 03-Nov-2013 ✈ KIAD - KBGM

Flight Track Log - Related Links

Times and Time Zones

All times are in EST time to prevent confusion due to time zone crossing. See the UCA596 flight status page for this flight to view local times or setup timezone preferences in your user account.

Time Position Orientation Groundspeed Altitude Reporting Facility
EST Latitude Longitude Course Direction KTS MPH feet Rate Location/Type
13:10 38.9667 -77.5000 North 134 154 2,100  Level Potomac TRACON
13:11 39.0000 -77.5167 339° North 159 183 3,600 1,507 Climbing Potomac TRACON
13:14 39.0994 -77.5681 338° Northwest 158 182 7,400 1,472 Climbing Washington Center
13:15 39.1494 -77.5642 North 158 182 8,800 1,328 Climbing Washington Center
13:16 39.3292 -77.2943 North  Level Estimated
13:16 39.2017 -77.5656 359° North 163 188 10,100  Level Washington Center
13:17 39.2456 -77.5506 15° North 168 193 12,000 1,475 Climbing Washington Center
13:18 39.3000 -77.5386 10° North 178 205 13,000 2,308 Climbing Washington Center
13:20 39.4119 -77.5136 10° North 195 224 19,000 1,370 Climbing New York Center
13:21 39.4669 -77.5000 11° North 200 230 17,200 -250 Descending New York Center
13:22 39.5111 -77.4908 North 186 214 18,500 900 Climbing New York Center
13:23 39.5514 -77.4811 11° North 159 183 19,000 250 Climbing New York Center
13:24 39.6086 -77.4650 12° North 168 193 19,000  Level New York Center
13:25 39.6656 -77.4542 North 192 221 19,000  Level New York Center
13:26 39.7219 -77.4542 360° North 198 228 19,000  Level New York Center
13:27 39.7781 -77.4542 360° North 203 234 19,000 -150 Level New York Center
13:28 39.8344 -77.4542 360° North 198 228 18,700 -600 Descending New York Center
13:29 39.8950 -77.4517 North 214 246 17,800 -650 Descending New York Center
13:30 39.9597 -77.4500 North 220 253 17,400 -650 Descending New York Center
13:31 40.0264 -77.4508 359° North 237 273 16,500 -850 Descending New York Center
13:32 40.0983 -77.4333 11° North 244 281 15,700 -750 Descending New York Center
13:33 40.1700 -77.3858 27° Northeast 272 313 15,000 -350 Descending New York Center
13:34 40.2389 -77.3433 25° Northeast 278 320 15,000  Level New York Center
13:35 40.3061 -77.3008 26° Northeast 267 307 15,000  Level New York Center
13:36 40.3728 -77.2633 23° Northeast 262 302 15,000  Level New York Center
13:37 40.4397 -77.2206 26° Northeast 262 302 15,000  Level New York Center
13:38 40.5022 -77.1828 25° Northeast 257 296 15,000  Level New York Center
13:39 40.5625 -77.1475 24° Northeast 257 296 15,000  Level New York Center
13:40 40.6317 -77.1019 27° Northeast 257 296 15,000  Level New York Center
13:41 40.6919 -77.0664 24° Northeast 257 296 15,000  Level New York Center
13:42 40.7564 -77.0256 26° Northeast 257 296 15,000  Level New York Center
13:43 40.8211 -76.9878 24° Northeast 257 296 15,000  Level New York Center
13:44 40.8919 -76.9447 25° Northeast 257 296 15,000  Level New York Center
13:45 40.9483 -76.9058 28° Northeast 252 290 15,000  Level New York Center
13:46 41.0128 -76.8678 24° Northeast 252 290 15,000  Level New York Center
13:47 41.0772 -76.8267 26° Northeast 252 290 15,000  Level New York Center
13:48 41.1419 -76.7856 26° Northeast 247 284 15,000  Level New York Center
13:49 41.2044 -76.7469 25° Northeast 247 284 15,000  Level New York Center
13:50 41.2708 -76.7061 25° Northeast 247 284 15,000  Level New York Center
13:51 41.3419 -76.6597 26° Northeast 247 284 15,000  Level New York Center
13:52 41.4000 -76.6233 25° Northeast 247 284 15,000  Level New York Center
13:53 41.4647 -76.5819 26° Northeast 247 284 15,000  Level New York Center
13:54 41.5356 -76.5381 25° Northeast 247 284 15,000  Level New York Center
13:55 41.6019 -76.4967 25° Northeast 247 284 15,000 -600 Level New York Center
13:56 41.6686 -76.4525 26° Northeast 253 291 13,800 -1,350 Descending New York Center
13:57 41.7333 -76.4078 27° Northeast 272 313 12,300 -1,500 Descending New York Center
13:58 41.8039 -76.3667 23° Northeast 277 319 10,800 -1,550 Descending New York Center
13:59 41.8792 -76.3172 26° Northeast 272 313 9,200 -1,550 Descending New York Center
14:00 41.9436 -76.2750 26° Northeast 261 300 7,700 -1,600 Descending New York Center
14:01 41.9983 -76.2156 39° Northeast 250 288 6,000 -1,900 Descending New York Center
14:02 42.0406 -76.1603 44° Northeast 242 278 3,900 -1,200 Descending New York Center
14:03 42.0850 -76.0942 48° Northeast 232 267 3,600 -150 Descending New York Center
14:04 42.1169 -76.0353 54° Northeast 213 245 3,600 -150 Level New York Center
14:05 42.1397 -75.9894 56° Northeast 177 204 3,300 -500 Descending New York Center
14:06 42.1683 -75.9553 42° Northeast 147 169 2,600 -500 Descending New York Center
14:07 42.1933 -75.9517 North 108 124 2,300 6,200 Descending New York Center
14:08 42.2214 -75.9317 28° Northeast 108 124 15,000 6,350 Climbing New York Center
14:09 42.2469 -75.9139 27° Northeast 108 124 15,000  Level New York Center
14:11 42.2000 -75.9667 236° Southwest  Level FlightAware Approximate